When you browse on this site, cookies collect data to enhance your experience and personalize the content and advertising you see.
Visit our Privacy Policy to learn more. By continuing to use the site, you agree to this use of cookies and data.
  • In Spain
  • List of Countries
  • For 7 days
  • Water Temperature
  • Weather Map
  • Weather Widgets
  • user-avatar
    Login

    Hourly Weather Podgajcy

    Today, 6 June, Saturday

    Time Temperature Precipitation Wind Pressure Humidity
    00:00 +17°C° 0.1 mm 3 mps 721 mmHg 84%
    01:00 +17°C° 0.1 mm 3 mps 722 mmHg 84%
    02:00 +17°C° 0 mm 3 mps 722 mmHg 84%
    03:00 +16°C° 0.5 mm 3 mps 722 mmHg 87%
    04:00 +16°C° 0.5 mm 2 mps 723 mmHg 90%
    05:00 +16°C° 0.5 mm 2 mps 723 mmHg 93%
    06:00 +17°C° 0.1 mm 2 mps 724 mmHg 90%
    07:00 +18°C° 0.1 mm 2 mps 724 mmHg 87%
    08:00 +19°C° 0.1 mm 2 mps 725 mmHg 84%
    09:00 +20°C° 0.1 mm 2 mps 725 mmHg 81%
    10:00 +21°C° 0.1 mm 2 mps 726 mmHg 79%
    11:00 +21°C° 0.1 mm 3 mps 726 mmHg 76%
    12:00 +21°C° 0.2 mm 2 mps 726 mmHg 76%
    13:00 +23°C° 0.2 mm 2 mps 726 mmHg 76%
    14:00 +23°C° 0.2 mm 1 mps 726 mmHg 75%
    15:00 +23°C° 0.4 mm 2 mps 726 mmHg 76%
    16:00 +23°C° 0.4 mm 2 mps 726 mmHg 76%
    17:00 +24°C° 0.4 mm 2 mps 726 mmHg 76%
    18:00 +21°C° 0.8 mm 3 mps 726 mmHg 82%
    19:00 +19°C° 0.8 mm 3 mps 725 mmHg 88%
    20:00 +18°C° 0.8 mm 3 mps 725 mmHg 94%
    21:00 +17°C° 0.1 mm 3 mps 725 mmHg 94%
    22:00 +17°C° 0.1 mm 3 mps 725 mmHg 94%
    23:00 +17°C° 0.1 mm 3 mps 725 mmHg 94%

    Tomorrow, 7 June, Sunday

    Time Temperature Precipitation Wind Pressure Humidity
    00:00 +17°C° 0.4 mm 3 mps 725 mmHg 95%
    01:00 +16°C° 0.4 mm 3 mps 725 mmHg 95%
    02:00 +16°C° 0.4 mm 3 mps 725 mmHg 96%
    03:00 +16°C° 0.1 mm 3 mps 725 mmHg 96%
    04:00 +17°C° 0.1 mm 3 mps 725 mmHg 96%
    05:00 +17°C° 0.1 mm 3 mps 725 mmHg 96%
    06:00 +18°C° 0 mm 4 mps 725 mmHg 93%
    07:00 +19°C° 0 mm 4 mps 725 mmHg 90%
    08:00 +20°C° 0 mm 5 mps 725 mmHg 87%
    09:00 +21°C° 0 mm 5 mps 725 mmHg 84%
    10:00 +22°C° 0 mm 6 mps 725 mmHg 80%
    11:00 +22°C° 0 mm 6 mps 725 mmHg 77%
    12:00 +23°C° 0.1 mm 6 mps 725 mmHg 75%
    13:00 +24°C° 0.1 mm 6 mps 725 mmHg 74%
    14:00 +26°C° 0.1 mm 6 mps 725 mmHg 72%
    15:00 +24°C° 0.2 mm 6 mps 725 mmHg 73%
    16:00 +24°C° 0.2 mm 6 mps 725 mmHg 74%
    17:00 +25°C° 0.2 mm 5 mps 725 mmHg 75%
    18:00 +22°C° 0 mm 5 mps 725 mmHg 78%
    19:00 +21°C° 0 mm 5 mps 725 mmHg 81%
    20:00 +20°C° 0 mm 5 mps 725 mmHg 84%
    21:00 +19°C° 0 mm 4 mps 725 mmHg 84%
    22:00 +18°C° 0 mm 3 mps 725 mmHg 85%
    23:00 +17°C° 0 mm 3 mps 725 mmHg 85%

    Day after tomorrow, 8 June, Monday

    Time Temperature Precipitation Wind Pressure Humidity
    00:00 +16°C° 0.1 mm 3 mps 725 mmHg 86%
    01:00 +16°C° 0.1 mm 3 mps 725 mmHg 86%
    02:00 +16°C° 0.1 mm 3 mps 725 mmHg 87%
    03:00 +14°C° 0 mm 3 mps 725 mmHg 86%
    04:00 +14°C° 0 mm 3 mps 725 mmHg 85%
    05:00 +14°C° 0 mm 3 mps 725 mmHg 84%
    06:00 +15°C° 0 mm 4 mps 725 mmHg 82%
    07:00 +17°C° 0 mm 5 mps 725 mmHg 80%
    08:00 +19°C° 0 mm 5 mps 725 mmHg 77%
    09:00 +21°C° 0 mm 5 mps 726 mmHg 75%
    10:00 +22°C° 0 mm 6 mps 726 mmHg 73%
    11:00 +23°C° 0 mm 6 mps 726 mmHg 71%
    12:00 +24°C° 0 mm 6 mps 726 mmHg 71%
    13:00 +24°C° 0 mm 6 mps 725 mmHg 71%
    14:00 +24°C° 0 mm 6 mps 725 mmHg 71%
    15:00 +24°C° 0.4 mm 6 mps 725 mmHg 74%
    16:00 +25°C° 0.4 mm 5 mps 725 mmHg 76%
    17:00 +25°C° 0.4 mm 5 mps 725 mmHg 78%
    18:00 +22°C° 0.9 mm 4 mps 725 mmHg 81%
    19:00 +20°C° 0.9 mm 3 mps 725 mmHg 84%
    20:00 +20°C° 0.9 mm 1 mps 724 mmHg 86%
    21:00 +19°C° 0.1 mm 1 mps 725 mmHg 87%
    22:00 +18°C° 0.1 mm 2 mps 725 mmHg 88%
    23:00 +17°C° 0.1 mm 2 mps 725 mmHg 89%

    9 June, Tuesday

    Time Temperature Precipitation Wind Pressure Humidity
    00:00 +18°C° 0.4 mm 1 mps 725 mmHg 90%
    01:00 +18°C° 0.4 mm 1 mps 725 mmHg 91%
    02:00 +16°C° 0.4 mm 1 mps 725 mmHg 92%
    03:00 +16°C° 0.4 mm 1 mps 725 mmHg 93%
    04:00 +16°C° 0.4 mm 1 mps 725 mmHg 93%
    05:00 +16°C° 0.4 mm 1 mps 725 mmHg 94%
    06:00 +17°C° 0 mm 2 mps 726 mmHg 93%
    07:00 +18°C° 0 mm 2 mps 726 mmHg 91%
    08:00 +19°C° 0 mm 2 mps 727 mmHg 90%
    09:00 +19°C° 0.2 mm 2 mps 727 mmHg 88%
    10:00 +20°C° 0.2 mm 2 mps 727 mmHg 87%
    11:00 +21°C° 0.2 mm 2 mps 727 mmHg 85%
    12:00 +21°C° 0.3 mm 2 mps 727 mmHg 83%
    13:00 +23°C° 0.3 mm 2 mps 727 mmHg 82%
    14:00 +23°C° 0.3 mm 2 mps 727 mmHg 80%
    15:00 +23°C° 0.7 mm 2 mps 727 mmHg 81%
    16:00 +23°C° 0.7 mm 2 mps 727 mmHg 83%
    17:00 +22°C° 0.7 mm 3 mps 726 mmHg 84%
    18:00 +21°C° 0.8 mm 2 mps 726 mmHg 87%
    19:00 +20°C° 0.8 mm 2 mps 726 mmHg 89%
    20:00 +19°C° 0.8 mm 2 mps 726 mmHg 92%
    21:00 +18°C° 0.3 mm 2 mps 726 mmHg 93%
    22:00 +18°C° 0.3 mm 2 mps 726 mmHg 94%
    23:00 +17°C° 0.3 mm 2 mps 727 mmHg 95%

    10 June, Wednesday

    Time Temperature Precipitation Wind Pressure Humidity
    00:00 +17°C° 0.1 mm 2 mps 726 mmHg 95%
    01:00 +16°C° 0.1 mm 2 mps 726 mmHg 95%
    02:00 +16°C° 0.1 mm 1 mps 726 mmHg 96%
    03:00 +16°C° 0.1 mm 1 mps 726 mmHg 96%
    04:00 +16°C° 0.1 mm 2 mps 726 mmHg 97%
    05:00 +16°C° 0.1 mm 2 mps 726 mmHg 97%
    06:00 +17°C° 0.2 mm 2 mps 726 mmHg 96%
    07:00 +18°C° 0.2 mm 2 mps 726 mmHg 95%
    08:00 +19°C° 0.2 mm 2 mps 726 mmHg 93%
    09:00 +19°C° 0.3 mm 2 mps 726 mmHg 92%
    10:00 +20°C° 0.3 mm 2 mps 726 mmHg 91%
    11:00 +20°C° 0.3 mm 3 mps 726 mmHg 90%
    12:00 +21°C° 0.7 mm 2 mps 726 mmHg 86%
    13:00 +23°C° 0.7 mm 2 mps 726 mmHg 82%
    14:00 +24°C° 0.7 mm 2 mps 726 mmHg 79%
    15:00 +24°C° 1.1 mm 2 mps 726 mmHg 79%
    16:00 +24°C° 1.1 mm 1 mps 726 mmHg 80%
    17:00 +24°C° 1.1 mm 1 mps 726 mmHg 80%
    18:00 +23°C° 0.9 mm 1 mps 726 mmHg 82%
    19:00 +22°C° 0.9 mm 1 mps 726 mmHg 84%
    20:00 +21°C° 0.9 mm 1 mps 726 mmHg 86%
    21:00 +20°C° 0.2 mm 1 mps 726 mmHg 86%
    22:00 +20°C° 0.2 mm 1 mps 726 mmHg 86%
    23:00 +19°C° 0.2 mm 1 mps 726 mmHg 86%

    11 June, Thursday

    Time Temperature Precipitation Wind Pressure Humidity
    00:00 +19°C° 0.1 mm 1 mps 726 mmHg 87%
    01:00 +19°C° 0.1 mm 1 mps 726 mmHg 88%
    02:00 +18°C° 0.1 mm 1 mps 726 mmHg 90%
    03:00 +18°C° 0 mm 1 mps 726 mmHg 91%
    04:00 +18°C° 0 mm 1 mps 725 mmHg 92%
    05:00 +18°C° 0 mm 1 mps 725 mmHg 93%
    06:00 +19°C° 0.1 mm 1 mps 726 mmHg 91%
    07:00 +20°C° 0.1 mm 1 mps 726 mmHg 89%
    08:00 +21°C° 0.1 mm 1 mps 726 mmHg 87%
    09:00 +22°C° 0.5 mm 1 mps 726 mmHg 85%
    10:00 +23°C° 0.5 mm 1 mps 726 mmHg 83%
    11:00 +23°C° 0.5 mm 2 mps 726 mmHg 82%
    12:00 +24°C° 1.2 mm 2 mps 726 mmHg 80%
    13:00 +24°C° 1.2 mm 2 mps 725 mmHg 78%
    14:00 +25°C° 1.2 mm 2 mps 725 mmHg 77%
    15:00 +25°C° 1.1 mm 2 mps 725 mmHg 78%
    16:00 +25°C° 1.1 mm 2 mps 725 mmHg 80%
    17:00 +25°C° 1.1 mm 3 mps 725 mmHg 82%
    18:00 +22°C° 0.6 mm 3 mps 725 mmHg 85%
    19:00 +21°C° 0.6 mm 3 mps 725 mmHg 88%
    20:00 +19°C° 0.6 mm 2 mps 725 mmHg 91%
    21:00 +19°C° 0.1 mm 2 mps 725 mmHg 91%
    22:00 +19°C° 0.1 mm 2 mps 725 mmHg 90%
    23:00 +19°C° 0.1 mm 1 mps 725 mmHg 90%
    Show more